This is the latest recevied weather packets stored in our database for station/object KT1D-13. If no packets are shown the sender has not sent any weather packets the latest 10 day(s).
| Time | Temp. | Humidity | Pressure | Rain* | Wind** | Luminosity | Snow |
|---|---|---|---|---|---|---|---|
| 1778148318 | 8.89° C | 95% | 1006.9 hPa | 0 mm | - | 10 W/m² | - |
| 1778138718 | 11.67° C | 91% | 1006.1 hPa | 0 mm | - | 0 W/m² | - |
| 1778132143 | 13.33° C | 92% | 1006.2 hPa | 0 mm | - | 0 W/m² | - |
| 1778131522 | 13.33° C | 93% | 1006 hPa | 0 mm | - | 0 W/m² | - |
| 1778129140 | 13.89° C | 96% | 1006.2 hPa | 0 mm | - | 0 W/m² | - |
| 1778127321 | 14.44° C | 97% | 1006 hPa | 0 mm | - | 0 W/m² | - |
| 1778126121 | 15° C | 97% | 1006.2 hPa | 0 mm | - | 0 W/m² | - |
| 1778118923 | 15° C | 95% | 1005.3 hPa | 0 mm | - | 0 W/m² | - |
| 1778117723 | 15° C | 95% | 1005.4 hPa | 0 mm | - | 0 W/m² | - |
| 1778112318 | 15° C | 95% | 1005.3 hPa | 0 mm | - | 0 W/m² | - |
| 1778105129 | 15.56° C | 94% | 1005.9 hPa | 0 mm | - | 42 W/m² | - |
| 1778103317 | 16.11° C | 89% | 1006.3 hPa | 0 mm | - | 49 W/m² | - |
| 1778100320 | 16.11° C | 88% | 1006.5 hPa | 0 mm | - | 79 W/m² | - |
| 1778095521 | 17.78° C | 80% | 1006.8 hPa | 0 mm | - | 125 W/m² | - |
| 1778094318 | 19.44° C | 71% | 1006.7 hPa | 0 mm | - | 118 W/m² | - |
| 1778091916 | 21.11° C | 61% | 1006.9 hPa | 0 mm | - | 105 W/m² | - |
| 1778090719 | 21.67° C | 58% | 1007 hPa | 0 mm | - | 138 W/m² | - |
| 1778089519 | 21.67° C | 59% | 1007.2 hPa | 0 mm | - | 220 W/m² | - |
| 1778085918 | 21.11° C | 62% | 1007.5 hPa | 0 mm | - | 288 W/m² | - |
| 1778085318 | 21.11° C | 62% | 1007.6 hPa | 0 mm | - | 343 W/m² | - |
| 1778081119 | 21.11° C | 61% | 1008.7 hPa | 0 mm | - | 381 W/m² | - |
| 1778075118 | 18.33° C | 73% | 1008.9 hPa | 0 mm | - | 414 W/m² | - |
| 1778073919 | 17.78° C | 75% | 1009.5 hPa | 0 mm | - | 303 W/m² | - |
| 1778072738 | 17.22° C | 77% | 1009.5 hPa | 0 mm | - | 317 W/m² | - |
| 1778071518 | 17.22° C | 78% | 1009.4 hPa | 0 mm | - | 338 W/m² | - |
* Rain latest hour (hover to see other rain measurements)
** Current wind speed in m/s (hover to see current wind gust speed)